Find Starlink 30772

NORAD ID: 58135 Int'l Des: 2023-162 Owner: SPXS Country: US Constellation: starlink operational
LEOCIRCULAR

Current View

Loading 3D Globe...

About Starlink 30772

Starlink 30772 (NORAD 58135) is a starlink constellation satellite (v2 mini) launched Oct 22, 2023 by SPXS of US. It operates in LEO, CIRCULAR orbit with a mass of 730.00 kg.

Upcoming Passes

Passes for default location (London). Set your location on the main map for personalized predictions.

Altitude History

Loading altitude history...

Two-Line Element Set

1 58135U 23162T 26262.92411608 .00000427 00000-0 25048-4 0 9991
2 58135 43.0031 115.4723 0001779 265.9127 94.1521 15.27579095162016
Epoch: Sep 19, 2026 • Age: 17 hours

Current Status

Altitude 491.5 km
Apogee / Perigee N/A
Velocity 7.62 km/s
Sub-Earth Point -33.65°S, 113.87°E
Launch Date Oct 22, 2023
Age 2.9 years
Type internet

Technical Details

Classification Payload
Mass 730.00 kg
Dry Mass 700.00 kg
Length 0.30 m
Span 29.00 m
Shape ? Box + pan
Manufacturer SPXS
Bus Type Starlink V2M
Phase Status In Orbit
Owner/State SPXS/US

Most Searched